Voltar ao catálogo

STARLINK-30483

AtivoComunicaçõesVLEO
NORAD 57914·PAYLOAD·🇺🇸 United States

Lançado Sep 24, 2023 de Cape Canaveral Space Force Station

Loading…

Próximas Passagens (próximas 24 horas)

TLE

AtualizadoSource: CelesTrak SupGP

Época: Sep 14, 2026, 20:48 UTC

1 57914C 23147B   26257.86715278  .00014242  00000+0  51571-3 0  2570
2 57914  43.0022 191.2561 0001345 262.7288  14.5962 15.27580596    18

Acompanhe STARLINK-30483 em tempo real com AllMySat

Download on the App Store